TimeCDT,TemperatureF,Dew PointF,Humidity,Sea Level PressureIn,VisibilityMPH,Wind Direction,Wind SpeedMPH,Gust SpeedMPH,PrecipitationIn,Events,Conditions,WindDirDegrees,DateUTC
12:15 AM,41.2,29.7,64,30.28,10.0,ESE,5.8,-,N/A,,Overcast,120,2013-03-29 05:15:00
12:35 AM,39.9,29.3,66,30.28,10.0,SE,5.8,-,N/A,,Scattered Clouds,130,2013-03-29 05:35:00
12:55 AM,39.7,29.3,66,30.28,10.0,Calm,Calm,-,N/A,,Clear,0,2013-03-29 05:55:00
1:15 AM,41.4,28.6,60,30.28,10.0,Calm,Calm,-,N/A,,Clear,0,2013-03-29 06:15:00
1:35 AM,39.9,28.9,65,30.28,10.0,NNE,3.5,-,N/A,,Clear,30,2013-03-29 06:35:00
1:55 AM,37.9,28.0,68,30.28,10.0,NE,3.5,-,N/A,,Clear,40,2013-03-29 06:55:00
2:15 AM,38.7,28.0,66,30.27,10.0,NE,3.5,-,N/A,,Clear,40,2013-03-29 07:15:00
2:35 AM,37.9,28.4,69,30.27,10.0,NE,4.6,-,N/A,,Clear,50,2013-03-29 07:35:00
2:55 AM,37.9,28.4,69,30.26,10.0,East,4.6,-,N/A,,Clear,80,2013-03-29 07:55:00
3:15 AM,38.1,28.2,68,30.26,10.0,ENE,4.6,-,N/A,,Clear,70,2013-03-29 08:15:00
3:35 AM,37.9,27.9,67,30.26,10.0,ENE,4.6,-,N/A,,Clear,70,2013-03-29 08:35:00
3:55 AM,36.7,27.9,70,30.25,10.0,ENE,5.8,-,N/A,,Clear,70,2013-03-29 08:55:00
4:15 AM,36.1,27.7,71,30.25,10.0,East,5.8,-,N/A,,Clear,90,2013-03-29 09:15:00
4:35 AM,36.0,27.5,71,30.25,10.0,East,4.6,-,N/A,,Clear,100,2013-03-29 09:35:00
4:55 AM,36.5,27.5,70,30.25,10.0,ESE,5.8,-,N/A,,Clear,110,2013-03-29 09:55:00
5:15 AM,37.4,27.5,67,30.25,10.0,East,5.8,-,N/A,,Clear,100,2013-03-29 10:15:00
5:35 AM,35.6,27.1,71,30.25,10.0,NE,5.8,-,N/A,,Clear,50,2013-03-29 10:35:00
5:55 AM,34.9,27.1,73,30.26,10.0,NE,6.9,-,N/A,,Clear,40,2013-03-29 10:55:00
6:15 AM,34.5,27.1,74,30.26,10.0,NE,6.9,-,N/A,,Clear,40,2013-03-29 11:15:00
6:35 AM,34.0,26.8,75,30.26,10.0,NE,5.8,-,N/A,,Clear,50,2013-03-29 11:35:00
6:55 AM,33.8,27.0,76,30.26,10.0,NE,5.8,-,N/A,,Clear,50,2013-03-29 11:55:00
7:15 AM,33.8,27.1,77,30.27,7.0,NE,5.8,-,N/A,,Clear,40,2013-03-29 12:15:00
7:35 AM,35.1,28.2,76,30.28,7.0,NE,5.8,-,N/A,,Clear,50,2013-03-29 12:35:00
7:55 AM,38.5,30.4,73,30.28,7.0,ENE,4.6,-,N/A,,Clear,60,2013-03-29 12:55:00
8:15 AM,40.1,31.3,71,30.29,7.0,ENE,4.6,-,N/A,,Clear,70,2013-03-29 13:15:00
8:35 AM,42.8,31.6,65,30.29,10.0,East,8.1,-,N/A,,Clear,80,2013-03-29 13:35:00
8:55 AM,44.8,31.8,60,30.30,10.0,East,8.1,-,N/A,,Clear,80,2013-03-29 13:55:00
9:15 AM,47.1,31.6,55,30.30,10.0,East,6.9,-,N/A,,Clear,100,2013-03-29 14:15:00
9:35 AM,48.9,30.9,50,30.29,10.0,East,6.9,-,N/A,,Clear,90,2013-03-29 14:35:00
9:55 AM,51.3,30.7,45,30.30,10.0,ESE,5.8,-,N/A,,Clear,120,2013-03-29 14:55:00
10:15 AM,53.2,29.5,40,30.29,10.0,East,8.1,-,N/A,,Clear,100,2013-03-29 15:15:00
10:35 AM,55.0,28.4,36,30.29,10.0,ESE,9.2,-,N/A,,Clear,120,2013-03-29 15:35:00
10:55 AM,56.7,28.2,34,30.29,10.0,ESE,8.1,-,N/A,,Clear,110,2013-03-29 15:55:00
11:15 AM,58.3,27.9,31,30.28,10.0,SE,8.1,-,N/A,,Clear,130,2013-03-29 16:15:00
11:55 AM,59.4,26.2,28,30.28,10.0,ENE,6.9,-,N/A,,Clear,70,2013-03-29 16:55:00
12:15 PM,59.9,26.2,28,30.28,10.0,SE,6.9,-,N/A,,Clear,130,2013-03-29 17:15:00
12:35 PM,60.3,24.1,25,30.28,10.0,East,8.1,-,N/A,,Clear,90,2013-03-29 17:35:00
12:55 PM,60.4,24.6,25,30.27,10.0,East,5.8,-,N/A,,Clear,90,2013-03-29 17:55:00
1:15 PM,61.9,24.4,24,30.26,10.0,East,10.4,-,N/A,,Clear,90,2013-03-29 18:15:00
1:35 PM,62.4,19.2,19,30.25,10.0,NE,6.9,-,N/A,,Clear,40,2013-03-29 18:35:00
1:55 PM,62.8,19.6,19,30.24,10.0,NE,4.6,-,N/A,,Clear,40,2013-03-29 18:55:00
2:15 PM,63.9,18.0,17,30.24,10.0,ENE,5.8,-,N/A,,Clear,60,2013-03-29 19:15:00
2:35 PM,63.3,20.1,19,30.23,10.0,ENE,10.4,-,N/A,,Clear,70,2013-03-29 19:35:00
2:55 PM,64.4,19.8,18,30.23,10.0,East,9.2,-,N/A,,Clear,90,2013-03-29 19:55:00
3:15 PM,64.0,17.8,17,30.22,10.0,East,9.2,-,N/A,,Clear,80,2013-03-29 20:15:00
3:35 PM,64.6,18.9,17,30.21,10.0,NE,8.1,-,N/A,,Clear,40,2013-03-29 20:35:00
3:55 PM,64.4,16.0,15,30.21,10.0,NE,9.2,-,N/A,,Clear,50,2013-03-29 20:55:00
4:15 PM,64.6,17.6,16,30.20,10.0,ENE,9.2,-,N/A,,Clear,70,2013-03-29 21:15:00
4:35 PM,64.8,18.9,17,30.20,10.0,East,3.5,-,N/A,,Clear,80,2013-03-29 21:35:00
4:55 PM,64.4,17.6,16,30.20,10.0,ESE,5.8,-,N/A,,Clear,120,2013-03-29 21:55:00
5:15 PM,64.8,16.7,16,30.20,10.0,ESE,6.9,-,N/A,,Clear,110,2013-03-29 22:15:00
5:35 PM,63.9,17.4,17,30.20,10.0,East,5.8,-,N/A,,Clear,100,2013-03-29 22:35:00
5:55 PM,63.5,16.9,17,30.20,10.0,Calm,Calm,-,N/A,,Clear,0,2013-03-29 22:55:00
6:15 PM,62.6,20.3,20,30.20,10.0,East,6.9,-,N/A,,Clear,80,2013-03-29 23:15:00
6:35 PM,61.7,20.1,20,30.20,10.0,East,3.5,-,N/A,,Clear,90,2013-03-29 23:35:00
6:55 PM,59.9,26.6,28,30.19,10.0,East,5.8,-,N/A,,Clear,100,2013-03-29 23:55:00
7:15 PM,57.4,27.9,32,30.19,10.0,East,8.1,-,N/A,,Clear,100,2013-03-30 00:15:00
7:35 PM,54.3,31.1,41,30.19,10.0,ESE,6.9,-,N/A,,Clear,110,2013-03-30 00:35:00
7:55 PM,52.7,30.2,42,30.19,10.0,ESE,5.8,-,N/A,,Clear,120,2013-03-30 00:55:00
8:15 PM,52.7,28.2,39,30.19,10.0,ESE,5.8,-,N/A,,Clear,120,2013-03-30 01:15:00
8:35 PM,52.2,27.9,39,30.19,10.0,ESE,4.6,-,N/A,,Clear,120,2013-03-30 01:35:00
8:55 PM,51.6,27.3,39,30.20,10.0,ESE,5.8,-,N/A,,Clear,110,2013-03-30 01:55:00
9:15 PM,50.7,28.0,42,30.20,10.0,ESE,5.8,-,N/A,,Clear,120,2013-03-30 02:15:00
9:35 PM,50.9,27.5,40,30.20,10.0,ESE,5.8,-,N/A,,Clear,120,2013-03-30 02:35:00
9:55 PM,50.2,27.5,42,30.20,10.0,ESE,5.8,-,N/A,,Clear,120,2013-03-30 02:55:00
10:15 PM,48.9,27.3,43,30.21,10.0,SE,5.8,-,N/A,,Clear,140,2013-03-30 03:15:00
10:35 PM,48.4,27.3,44,30.20,5.0,SE,5.8,-,N/A,,Haze,130,2013-03-30 03:35:00
10:55 PM,48.2,27.5,45,30.20,10.0,SE,5.8,-,N/A,,Clear,140,2013-03-30 03:55:00
11:15 PM,47.5,27.9,47,30.19,10.0,SE,6.9,-,N/A,,Clear,130,2013-03-30 04:15:00
11:35 PM,46.6,28.6,50,30.19,10.0,SE,8.1,-,N/A,,Clear,140,2013-03-30 04:35:00
11:55 PM,46.6,29.3,51,30.19,10.0,SE,6.9,-,N/A,,Clear,140,2013-03-30 04:55:00